Location: Baia Mare
(47.6567°N, 23.5850°E)
Time: 16:51:20
(UTC+03:00)

ISS - Pass Details

Date: 07 October 2018
Orbit: 403 x 408 km, 51.6° (Epoch: 16 October)

Event Time Altitude Azimuth Distance (km) Brightness Sun altitude
Rises 21:19:22 0° 290° (WNW) 2,339 1.4 -25.0°
Reaches altitude 10° 21:21:37 10° 278° (W) 1,474 0.0 -25.4°
Enters shadow 21:23:21 22° 253° (WSW) 946 -1.5 -25.7°
